Simultaneous Nadir Overpasses (SNOs) Predictions

Prediction of SNOs between NOAA-19 and TERRA Satellite Orbit:

Table of predicted SNOs for the next 14.0 days since TLE Epoch: 7/21/2023
Index Date (NOAA-19) Time (NOAA-19) Lat,Lon (NOAA-19) SZA (NOAA-19 ) Date (TERRA) Time (TERRA) Lat,Lon (TERRA) SZA (TERRA ) Distance(km) Time Diff (sec)
1 07/23/2023 20:23:24 -80.87, 86.72 117.78 07/23/2023 20:23:59 -80.88, 86.77 117.76 0.95 35
2 07/23/2023 21:14:26 80.88,-105.50 62.29 07/23/2023 21:13:20 80.89,-105.46 62.27 0.89 66
3 07/26/2023 00:13:55 80.88,-150.73 62.70 07/26/2023 00:14:09 80.88,-150.77 62.70 0.92 14
4 07/28/2023 04:04:20 -80.87, -28.60 116.86 07/28/2023 04:04:21 -80.86, -28.61 116.87 1.14 1
5 07/30/2023 07:54:50 80.87, 93.84 63.66 07/30/2023 07:54:30 80.87, 93.95 63.66 1.88 20
6 08/01/2023 10:54:18 80.86, 48.79 64.17 08/01/2023 10:55:18 80.86, 48.61 64.17 3.12 60
7 08/01/2023 11:45:14 -80.87,-143.40 115.77 08/01/2023 11:44:40 -80.88,-143.46 115.79 1.25 34
8 08/03/2023 14:44:44 -80.86, 170.95 115.31 08/03/2023 14:45:28 -80.86, 171.08 115.28 2.31 44



Historial Predications of SNOs between NOAA-19 and TERRA
